User: anonymous   Login
Location: Unspecified
(0.0000°N, 0.0000°E)
Time: 16:41:18
(UTC+01:00)
Language:

Envisat - Orbit

View from above orbital plane
View from above orbital plane
View from above satellite
View from above satellite

Ground track
Ground track

The orbit data is extracted from the following two-line orbital elements,

1 27386U 02009A   21333.20213543  .00000076  00000-0  38681-4 0  9992
2 27386  98.1636 318.9612 0001319  89.6939 282.7059 14.38057192 34751
Epoch (UTC): 29 November 2021 04:51:04
Eccentricity: 0.0001319
inclination: 98.1636°
perigee height: 764 km
apogee height: 766 km
right ascension of ascending node: 318.9612°
argument of perigee: 89.6939°
revolutions per day: 14.38057192
mean anomaly at epoch: 282.7059°
orbit number at epoch: 3475

The dashed part of the orbit path shows where the satellite is in the earth's shadow,  

DLR